EA4TN Weather Reports


Display with metric or nautical units.
time (UTC)temp
F
wind
direction
speed
MPH
gust
MPH
rain 1hr
in
rain 24hr
in
rain mn
in
humidity
%
barometer
mb
20260509184016 62 242 3.0 8.0 0.00 0.24 0.24 76 1009.4
20260509183016 62 245 3.0 6.0 0.00 0.24 0.24 77 1009.5
20260509182016 63 237 3.0 7.0 0.00 0.24 0.24 75 1009.6
20260509181016 63 247 1.0 4.0 0.00 0.24 0.24 77 1009.6
20260509180016 62 227 3.0 8.0 0.00 0.24 0.24 77 1009.5
20260509175016 62 243 3.0 8.0 0.00 0.24 0.24 77 1009.4
20260509174016 61 242 3.0 9.0 0.00 0.24 0.24 77 1009.4
20260509173016 61 247 3.0 8.0 0.00 0.24 0.24 79 1009.4
20260509172016 60 235 3.0 9.0 0.05 0.24 0.24 81 1009.3
20260509171016 59 244 3.0 8.0 0.06 0.24 0.24 83 1009.2
20260509170016 59 255 3.0 10.0 0.06 0.24 0.24 84 1009.2
20260509165016 58 243 3.0 12.0 0.06 0.24 0.24 86 1009.2
20260509164016 57 248 3.0 8.0 0.06 0.24 0.24 85 1009.4
20260509163016 58 256 3.0 22.0 0.06 0.24 0.24 81 1009.6
20260509162016 62 259 2.0 5.0 0.01 0.19 0.19 78 1009.7
20260509161116 63 271 2.0 4.0 0.00 0.18 0.18 73 1009.2
20260509160016 63 300 2.0 4.0 0.01 0.18 0.18 73 1009.0
20260509155016 63 281 1.0 3.0 0.02 0.18 0.18 73 1009.1
20260509154016 63 45 1.0 4.0 0.02 0.18 0.18 73 1009.1
20260509153156 62 288 1.0 3.0 0.02 0.18 0.18 75 1009.2
20260509152036 60 305 1.0 3.0 0.02 0.18 0.18 80 1009.3
20260509151036 59 295 1.0 4.0 0.02 0.18 0.18 81 1009.4
20260509150016 60 273 1.0 4.0 0.01 0.17 0.17 78 1009.7
20260509145016 61 261 1.0 4.0 0.00 0.17 0.17 76 1009.6
20260509144016 61 107 1.0 4.0 0.00 0.17 0.17 79 1009.8
20260509143016 60 55 2.0 6.0 0.00 0.17 0.17 80 1009.6
20260509142016 59 43 4.0 6.0 0.00 0.17 0.17 86 1009.4
20260509141016 58 53 3.0 6.0 0.00 0.17 0.17 91 1009.7
20260509140016 57 66 3.0 5.0 0.01 0.17 0.17 92 1009.8
20260509135016 56 72 3.0 6.0 0.03 0.17 0.17 92 1009.9
20260509134016 56 95 2.0 5.0 0.10 0.17 0.17 94 1009.9
20260509133016 55 73 1.0 3.0 0.12 0.17 0.17 93 1010.0
20260509132036 54 284 0.0 2.0 0.17 0.17 0.17 91 1010.0
20260509131016 54 284 2.0 4.0 0.17 0.17 0.17 91 1010.3
20260509130036 54 292 2.0 8.0 0.16 0.16 0.16 89 1010.5
20260509125016 55 270 3.0 9.0 0.13 0.13 0.13 86 1010.7
20260509124116 57 271 4.0 13.0 0.06 0.06 0.06 84 1010.4
20260509123016 59 341 5.0 10.0 0.05 0.05 0.05 80 1009.9
20260509122016 60 281 3.0 8.0 0.00 0.00 0.00 74 1009.9
20260509121016 61 285 3.0 7.0 0.00 0.08 0.00 73 1009.8
20260509120016 60 289 2.0 6.0 0.00 0.09 0.00 74 1009.8
20260509115016 60 304 4.0 10.0 0.00 0.09 0.00 75 1009.9
20260509114016 60 282 4.0 7.0 0.00 0.09 0.00 75 1010.0
20260509113036 60 286 4.0 8.0 0.00 0.09 0.00 73 1010.0
20260509112016 61 273 5.0 8.0 0.00 0.09 0.00 72 1010.1
20260509111056 62 261 4.0 8.0 0.00 0.09 0.00 69 1010.4
20260509110016 62 255 4.0 11.0 0.00 0.09 0.00 67 1010.3
20260509105037 61 267 4.0 7.0 0.00 0.09 0.00 68 1010.4
20260509104016 61 240 1.0 6.0 0.00 0.09 0.00 69 1010.4
20260509103036 61 249 3.0 7.0 0.00 0.10 0.00 69 1010.4
20260509102016 60 255 3.0 9.0 0.00 0.11 0.00 70 1010.3
20260509101036 60 240 4.0 10.0 0.00 0.11 0.00 70 1010.2
20260509100016 60 251 4.0 11.0 0.00 0.11 0.00 70 1010.1
20260509095017 60 235 5.0 9.0 0.00 0.11 0.00 70 1010.2
20260509094016 60 240 2.0 6.0 0.00 0.11 0.00 72 1010.3
20260509093016 59 244 4.0 10.0 0.00 0.11 0.00 75 1010.2
20260509092016 59 253 2.0 6.0 0.00 0.11 0.00 78 1010.3
20260509091016 58 254 2.0 5.0 0.00 0.11 0.00 80 1010.4
20260509090016 59 249 2.0 8.0 0.00 0.11 0.00 77 1010.5
20260509085036 59 231 2.0 9.0 0.00 0.11 0.00 74 1010.5
20260509084017 59 244 3.0 6.0 0.00 0.11 0.00 75 1010.6
20260509083016 59 266 2.0 7.0 0.00 0.11 0.00 75 1010.6
20260509082017 58 243 4.0 9.0 0.00 0.11 0.00 75 1010.5
20260509081016 58 114 2.0 7.0 0.00 0.11 0.00 76 1010.5
20260509080017 57 148 1.0 8.0 0.00 0.11 0.00 78 1010.4
20260509075017 57 106 1.0 8.0 0.00 0.11 0.00 78 1010.5
20260509074016 57 248 1.0 5.0 0.00 0.11 0.00 80 1010.7
20260509073016 56 257 1.0 2.0 0.00 0.11 0.00 80 1010.5
20260509072016 56 257 1.0 4.0 0.00 0.11 0.00 80 1010.5
20260509071017 56 228 0.0 4.0 0.00 0.11 0.00 80 1010.6
20260509070036 56 268 1.0 5.0 0.00 0.11 0.00 81 1010.7
20260509065017 56 267 3.0 6.0 0.00 0.11 0.00 81 1011.0
20260509064017 56 168 2.0 5.0 0.00 0.11 0.00 80 1010.5
20260509063036 56 244 3.0 10.0 0.00 0.11 0.00 80 1010.7
20260509062016 56 235 3.0 8.0 0.00 0.11 0.00 81 1010.7
20260509061017 56 263 3.0 7.0 0.00 0.11 0.00 81 1010.8
20260509060016 56 203 3.0 8.0 0.00 0.11 0.00 80 1010.5
20260509055016 56 120 3.0 9.0 0.00 0.11 0.00 81 1010.5
20260509054016 56 245 3.0 10.0 0.00 0.11 0.00 81 1010.6
20260509053017 55 241 3.0 8.0 0.00 0.11 0.00 81 1010.6
20260509052017 55 100 3.0 9.0 0.00 0.11 0.00 81 1010.4
20260509051016 56 125 6.0 12.0 0.00 0.11 0.00 81 1010.2
20260509050017 56 127 4.0 13.0 0.00 0.11 0.00 81 1010.1
20260509045036 56 125 5.0 12.0 0.00 0.11 0.00 81 1010.0
20260509044037 56 120 4.0 13.0 0.00 0.11 0.00 81 1009.8
20260509043016 56 126 4.0 13.0 0.00 0.11 0.00 81 1009.4
20260509042017 56 118 7.0 15.0 0.00 0.11 0.00 81 1009.6
20260509041016 56 130 7.0 15.0 0.00 0.11 0.00 81 1009.1
20260509040037 56 129 5.0 14.0 0.00 0.11 0.00 81 1009.7
20260509035036 56 132 5.0 9.0 0.00 0.11 0.00 81 1010.1
20260509034016 56 121 4.0 9.0 0.00 0.11 0.00 81 1010.7
20260509033016 56 111 2.0 7.0 0.00 0.11 0.00 81 1010.7
20260509032037 56 82 3.0 10.0 0.00 0.11 0.00 80 1010.7
20260509031016 56 112 2.0 7.0 0.00 0.11 0.00 81 1010.6
20260509030017 56 226 3.0 8.0 0.00 0.11 0.00 81 1010.6
20260509025017 56 102 3.0 8.0 0.00 0.11 0.00 80 1010.4
20260509024017 56 110 4.0 10.0 0.00 0.11 0.00 80 1010.2
20260509023017 56 105 4.0 9.0 0.00 0.11 0.00 80 1010.1
20260509022037 56 221 2.0 6.0 0.00 0.11 0.00 81 1010.3
20260509021056 56 105 1.0 3.0 0.00 0.11 0.00 81 1010.3
20260509020016 56 107 2.0 9.0 0.00 0.11 0.00 80 1010.3
20260509015017 56 119 2.0 7.0 0.00 0.11 0.00 81 1010.4
20260509014016 56 48 2.0 8.0 0.00 0.11 0.00 81 1010.3
20260509013016 56 79 2.0 6.0 0.00 0.11 0.00 81 1010.3
20260509012016 57 335 1.0 9.0 0.00 0.11 0.00 80 1010.4
20260509011037 57 118 3.0 9.0 0.00 0.11 0.00 80 1010.4
20260509010017 57 116 3.0 11.0 0.00 0.11 0.00 80 1010.6
20260509005016 57 130 5.0 8.0 0.00 0.11 0.00 81 1010.6
20260509004016 57 125 3.0 8.0 0.00 0.11 0.00 80 1010.8
20260509003017 57 127 4.0 11.0 0.00 0.11 0.00 80 1010.8
20260509002016 57 122 5.0 10.0 0.00 0.11 0.00 79 1010.9
20260509001016 57 126 2.0 8.0 0.00 0.11 0.00 78 1011.0
20260509000017 57 134 3.0 11.0 0.00 0.11 0.11 79 1011.1
20260508235016 56 135 2.0 7.0 0.00 0.11 0.11 82 1011.1
20260508234016 55 52 1.0 8.0 0.00 0.11 0.11 84 1011.0
20260508233016 55 59 4.0 8.0 0.00 0.11 0.11 84 1011.0
20260508232016 56 66 4.0 9.0 0.00 0.11 0.11 84 1011.0
20260508231016 56 79 2.0 7.0 0.00 0.11 0.11 84 1010.8
20260508230017 56 77 3.0 7.0 0.00 0.11 0.11 84 1010.8
20260508225016 56 69 3.0 9.0 0.00 0.11 0.11 83 1011.0
20260508224036 57 68 4.0 10.0 0.00 0.11 0.11 83 1011.3
20260508223016 57 66 5.0 10.0 0.00 0.11 0.11 82 1011.4
20260508222016 57 49 5.0 10.0 0.00 0.11 0.11 82 1011.3
20260508221016 57 47 5.0 9.0 0.00 0.11 0.11 80 1011.3
20260508220016 58 50 5.0 8.0 0.00 0.11 0.11 79 1011.3
20260508215016 58 46 4.0 7.0 0.00 0.11 0.11 79 1011.2
20260508214016 58 49 4.0 8.0 0.00 0.11 0.11 79 1011.2
20260508213016 58 50 4.0 9.0 0.00 0.11 0.11 78 1011.2
20260508212016 58 50 3.0 7.0 0.00 0.11 0.11 76 1011.4
20260508211036 58 67 2.0 4.0 0.00 0.11 0.11 75 1011.2
20260508210016 58 53 2.0 3.0 0.00 0.11 0.11 74 1011.1
20260508205016 58 51 3.0 5.0 0.00 0.11 0.11 73 1011.0
20260508204056 59 50 2.0 4.0 0.00 0.11 0.11 72 1010.8
20260508203016 59 49 2.0 4.0 0.00 0.11 0.11 71 1010.7
20260508202016 59 49 3.0 6.0 0.00 0.11 0.11 71 1010.6
20260508201016 59 52 4.0 6.0 0.00 0.11 0.11 71 1010.5
20260508200017 59 47 4.0 5.0 0.00 0.11 0.11 71 1010.5
20260508195056 59 45 3.0 5.0 0.00 0.11 0.11 71 1010.4
20260508194016 60 44 3.0 5.0 0.00 0.11 0.11 70 1010.2
20260508193016 60 44 2.0 4.0 0.00 0.11 0.11 69 1010.1
20260508192016 61 59 1.0 4.0 0.00 0.11 0.11 68 1010.1
20260508191016 61 49 3.0 5.0 0.00 0.11 0.11 66 1010.0
20260508190016 62 37 3.0 5.0 0.00 0.11 0.11 64 1010.1
20260508185016 63 58 2.0 4.0 0.00 0.11 0.11 63 1010.0